Weather History for Grants-Milan, NM

Change the Weather History Date:

Wednesday, February 13, 2013

  Actual Average Record
Temperature  
Mean Temperature 26 °F -  
Max Temperature 46 °F 54 °F 68 °F (1967)
Min Temperature 5 °F 19 °F -7 °F (1964)
Degree Days  
Heating Degree Days 40    
Moisture  
Dew Point 11 °F    
Average Humidity 61    
Maximum Humidity 89    
Minimum Humidity 28    
Precipitation  
Precipitation 0.00 in - - ()
Sea Level Pressure  
Sea Level Pressure 30.15 in    
Wind  
Wind Speed 5 mph (NNW)    
Max Wind Speed 20 mph    
Max Gust Speed 30 mph    
Visibility 10 miles    
Events      
Averages and records for this station are not official NWS values.
T = Trace of Precipitation, MM = Missing Value Source: NWS Daily Summary

Daily Weather History Graph

Daily Weather History Graph

Search for Another Location

Airport:

Trip Planner

Search our weather history database for the weather conditions in past years. The results will help you decide how hot, cold, wet, or windy it might be!

Date:

Astronomy

Feb. 13, 2013 Rise Set
Actual Time 6:59 AM MST 5:52 PM MST
Civil Twilight 6:33 AM MST 6:18 PM MST
Nautical Twilight 6:03 AM MST 6:48 PM MST
Astronomical Twilight 5:34 AM MST 7:17 PM MST
Moon 8:41 AM MST (2/13) 9:46 PM MST (2/13)
Length of Visible Light 11h 45m
Length of Day
10h 52m
Waxing Crescent, 14% of the Moon is Illuminated
Feb 13
Waxing Crescent
Feb 17
First Quarter
Feb 25
Full
Mar 4
Last Quarter
Mar 11
New

Hourly Weather History & Observations

Time (MST) Temp. Windchill Dew Point Humidity Pressure Visibility Wind Dir Wind Speed Gust Speed Precip Events Conditions
12:15 AM 12.9 °F - 9.9 °F 88% 30.18 in 10.0 mi Calm Calm - N/A   Clear
12:35 AM 10.9 °F 2.9 °F 7.7 °F 87% 30.18 in 10.0 mi NNW 4.6 mph - N/A   Clear
12:55 AM 11.5 °F - 7.9 °F 85% 30.18 in 10.0 mi Calm Calm - N/A   Clear
1:15 AM 11.1 °F 4.9 °F 7.3 °F 85% 30.19 in 10.0 mi North 3.5 mph - N/A   Clear
1:35 AM 10.2 °F - 7.2 °F 87% 30.19 in 10.0 mi Calm Calm - N/A   Clear
1:55 AM 11.1 °F - 7.9 °F 87% 30.18 in 10.0 mi Calm Calm - N/A   Clear
2:15 AM 8.4 °F 1.8 °F 5.2 °F 87% 30.18 in 10.0 mi North 3.5 mph - N/A   Clear
2:35 AM 7.3 °F -1.3 °F 3.9 °F 86% 30.18 in 10.0 mi NNW 4.6 mph - N/A   Clear
2:55 AM 7.9 °F -2.2 °F 5.2 °F 89% 30.18 in 10.0 mi NNW 5.8 mph - N/A   Clear
3:15 AM 8.8 °F 2.2 °F 5.9 °F 88% 30.18 in 10.0 mi NW 3.5 mph - N/A   Clear
3:35 AM 7.5 °F 0.8 °F 4.5 °F 87% 30.18 in 10.0 mi WNW 3.5 mph - N/A   Clear
3:55 AM 10.2 °F 2.0 °F 7.0 °F 87% 30.16 in 10.0 mi NW 4.6 mph - N/A   Clear
4:15 AM 8.6 °F - 5.0 °F 85% 30.16 in 10.0 mi Calm Calm - N/A   Clear
4:35 AM 9.0 °F - 5.4 °F 85% 30.16 in 10.0 mi Calm Calm - N/A   Clear
4:55 AM 6.1 °F -0.9 °F 1.8 °F 82% 30.16 in 10.0 mi NNW 3.5 mph - N/A   Clear
5:15 AM 6.4 °F -0.5 °F 3.4 °F 87% 30.16 in 10.0 mi North 3.5 mph - N/A   Clear
5:35 AM 5.9 °F -3.0 °F 3.2 °F 89% 30.16 in 10.0 mi NW 4.6 mph - N/A   Clear
5:55 AM 8.4 °F -1.6 °F 4.8 °F 85% 30.18 in 10.0 mi WNW 5.8 mph - N/A   Clear
6:15 AM 8.6 °F 0.1 °F 5.0 °F 85% 30.18 in 10.0 mi West 4.6 mph - N/A   Clear
6:35 AM 7.7 °F -0.9 °F 4.3 °F 86% 30.18 in 10.0 mi NW 4.6 mph - N/A   Clear
6:55 AM 8.4 °F -0.1 °F 4.8 °F 85% 30.18 in 10.0 mi WNW 4.6 mph - N/A   Clear
7:15 AM 8.6 °F -1.3 °F 5.0 °F 85% 30.18 in 10.0 mi NW 5.8 mph - N/A   Clear
7:35 AM 11.3 °F 3.3 °F 7.3 °F 84% 30.18 in 10.0 mi WNW 4.6 mph - N/A   Clear
7:55 AM 13.3 °F 3.0 °F 8.8 °F 82% 30.18 in 10.0 mi WNW 6.9 mph - N/A   Clear
8:15 AM 15.4 °F 8.1 °F 10.0 °F 79% 30.18 in 10.0 mi NW 4.6 mph - N/A   Clear
8:35 AM 16.9 °F 8.5 °F 10.2 °F 75% 30.18 in 10.0 mi NNW 5.8 mph - N/A   Clear
8:55 AM 19.4 °F 10.4 °F 10.9 °F 70% 30.19 in 10.0 mi NW 6.9 mph - N/A   Clear
9:15 AM 21.6 °F 14.0 °F 11.3 °F 65% 30.19 in 10.0 mi NW 5.8 mph - N/A   Clear
9:35 AM 25.5 °F 17.8 °F 12.2 °F 57% 30.19 in 10.0 mi NNW 6.9 mph - N/A   Clear
9:55 AM 27.7 °F 21.3 °F 13.1 °F 54% 30.18 in 10.0 mi NW 5.8 mph - N/A   Clear
10:15 AM 31.8 °F 26.2 °F 12.9 °F 46% 30.18 in 10.0 mi North 5.8 mph - N/A   Clear
10:35 AM 33.1 °F 26.9 °F 12.0 °F 42% 30.17 in 10.0 mi North 6.9 mph - N/A   Clear
10:55 AM 36.0 °F 28.5 °F 11.5 °F 36% 30.17 in 10.0 mi NNW 10.4 mph - N/A   Clear
11:15 AM 37.9 °F 31.5 °F 11.3 °F 33% 30.16 in 10.0 mi North 9.2 mph 16.1 mph N/A   Clear
11:35 AM 38.7 °F 33.6 °F 11.7 °F 33% 30.16 in 10.0 mi North 6.9 mph 10.4 mph N/A   Clear
11:55 AM 40.8 °F 33.7 °F 13.1 °F 32% 30.15 in 10.0 mi NNW 12.7 mph 16.1 mph N/A   Clear
12:15 PM 42.3 °F 34.4 °F 14.0 °F 32% 30.14 in 10.0 mi North 16.1 mph 21.9 mph N/A   Clear
12:35 PM 43.5 °F 35.8 °F 14.2 °F 31% 30.13 in 10.0 mi North 17.3 mph 25.3 mph N/A   Clear
12:55 PM 44.2 °F 37.6 °F 14.7 °F 30% 30.12 in 10.0 mi NNW 13.8 mph 20.7 mph N/A   Clear
1:15 PM 44.6 °F 37.4 °F 15.3 °F 31% 30.12 in 5.0 mi NW 16.1 mph 23.0 mph N/A   Haze
1:35 PM 44.8 °F 38.0 °F 15.6 °F 31% 30.12 in 10.0 mi NW 15.0 mph 29.9 mph N/A   Clear
1:55 PM 45.3 °F 38.1 °F 16.0 °F 31% 30.11 in 10.0 mi NNW 17.3 mph 24.2 mph N/A   Clear
2:15 PM 45.9 °F 38.8 °F 16.2 °F 30% 30.11 in 10.0 mi NNW 17.3 mph 24.2 mph N/A   Clear
2:35 PM 45.9 °F 39.1 °F 15.8 °F 30% 30.11 in 10.0 mi North 16.1 mph 21.9 mph N/A   Clear
2:55 PM 46.6 °F - 15.4 °F 29% 30.10 in 10.0 mi NNW 19.6 mph 24.2 mph N/A   Clear
3:15 PM 46.6 °F - 16.0 °F 29% 30.10 in 10.0 mi NNW 17.3 mph 23.0 mph N/A   Clear
3:35 PM 46.4 °F 39.5 °F 15.1 °F 28% 30.11 in 10.0 mi North 17.3 mph 24.2 mph N/A   Clear
3:55 PM 46.2 °F 39.8 °F 15.1 °F 29% 30.10 in 10.0 mi North 15.0 mph 21.9 mph N/A   Clear
4:15 PM 45.9 °F 38.8 °F 14.5 °F 28% 30.10 in 10.0 mi North 17.3 mph 23.0 mph N/A   Clear
4:35 PM 45.5 °F 38.6 °F 14.0 °F 28% 30.10 in 10.0 mi North 16.1 mph - N/A   Clear
4:55 PM 44.6 °F 38.4 °F 14.4 °F 30% 30.09 in 10.0 mi North 12.7 mph 19.6 mph N/A   Clear
5:15 PM 43.9 °F 38.3 °F 14.5 °F 31% 30.10 in 10.0 mi North 10.4 mph - N/A   Clear
5:35 PM 42.4 °F 36.5 °F 14.0 °F 32% 30.10 in 10.0 mi North 10.4 mph - N/A   Clear
5:55 PM 39.0 °F 33.4 °F 13.8 °F 36% 30.11 in 10.0 mi NNW 8.1 mph - N/A   Clear
6:15 PM 36.0 °F 31.1 °F 14.0 °F 41% 30.12 in 10.0 mi NW 5.8 mph - N/A   Clear
6:35 PM 35.8 °F 30.1 °F 14.4 °F 42% 30.12 in 10.0 mi North 6.9 mph - N/A   Clear
6:55 PM 33.8 °F 25.8 °F 14.4 °F 45% 30.13 in 10.0 mi NW 10.4 mph - N/A   Clear
7:15 PM 33.8 °F 25.3 °F 14.9 °F 46% 30.13 in 10.0 mi NW 11.5 mph - N/A   Clear
7:35 PM 32.0 °F 24.8 °F 15.8 °F 51% 30.13 in 10.0 mi WNW 8.1 mph - N/A   Clear
7:55 PM 28.0 °F 24.2 °F 15.3 °F 59% 30.14 in 10.0 mi NNW 3.5 mph - N/A   Clear
8:15 PM 27.5 °F 22.2 °F 15.4 °F 61% 30.15 in 10.0 mi NNW 4.6 mph - N/A   Clear
8:35 PM 24.8 °F - 14.7 °F 66% 30.15 in 10.0 mi Calm Calm - N/A   Clear
8:55 PM 24.6 °F 20.3 °F 14.2 °F 65% 30.16 in 10.0 mi NNW 3.5 mph - N/A   Clear
9:15 PM 23.4 °F - 14.0 °F 67% 30.16 in 10.0 mi Calm Calm - N/A   Clear
9:35 PM 23.0 °F - 14.4 °F 70% 30.16 in 10.0 mi Calm Calm - N/A   Clear
9:55 PM 21.9 °F 15.7 °F 14.2 °F 72% 30.16 in 10.0 mi NNW 4.6 mph - N/A   Clear
10:15 PM 19.0 °F 13.9 °F 13.8 °F 80% 30.16 in 10.0 mi NNW 3.5 mph - N/A   Clear
10:35 PM 20.1 °F 15.2 °F 14.5 °F 79% 30.17 in 10.0 mi NW 3.5 mph - N/A   Clear
10:55 PM 20.3 °F 15.4 °F 14.0 °F 77% 30.16 in 10.0 mi North 3.5 mph - N/A   Clear
11:15 PM 19.4 °F - 13.8 °F 79% 30.16 in 10.0 mi Calm Calm - N/A   Clear
11:35 PM 21.2 °F - 13.8 °F 73% 30.16 in 10.0 mi Calm Calm - N/A   Clear
11:55 PM 15.4 °F 9.8 °F 11.3 °F 84% 30.16 in 10.0 mi NW 3.5 mph - N/A   Clear